Regional Weather Roundup
Issued by NWS Sterling, VA

Home | Current Version | Previous Version | Text Only | Print | Product List | Glossary Off
Versions: 1 2 3 4 5 6 7 8 9 10 11 12 13 14 15 16 17 18 19 20 21 22 23 24 25 26 27 28 29 30 31 32 33 34 35 36 37 38 39 40 41 42 43 44 45 46 47 48 49 50

000
ASUS41 KLWX 281310
RWRLWX

REGIONAL WEATHER ROUNDUP
NATIONAL WEATHER SERVICE BALTIMORE MD/WASHINGTON DC
800 AM EST TUE FEB 28 2017

Note: "FAIR" indicates few or no clouds below 12,000 feet
with no significant weather and/or obstructions to visibility.
 TC=TEMPERATURE CELSIUS

 * =Non NWS site. Station does not report precipitation (e.g. rain,
    snow, etc.), thunder, or fog.

DCZ001-MDZ009-015-VAZ040>042-051-053>054-281400-
WASHINGTON METRO

CITY           SKY/WX    TMP DP  RH WIND       PRES   REMARKS
WASHINGTON NAT MOSUNNY   50  39  66 E5        30.32R
DULLES         MOSUNNY   43  36  76 CALM      30.30S
ANDREWS AFB    SUNNY     46  38  75 CALM      30.31R
FT BELVOIR     SUNNY     47  37  69 CALM      30.31R
QUANTICO       MOSUNNY   46  39  76 CALM      30.32F
COLLEGE PARK*  SUNNY     45  34  65 CALM      30.31S
LEESBURG*      SUNNY     43  37  81 MISG      30.31S
MANASSAS*      PTSUNNY   45  37  73 CALM      30.31S
GAITHERSBURG*  SUNNY     46  32  57 SE5       30.33F

$$

MDZ006>007-011-014-281400-
BALTIMORE METRO

CITY           SKY/WX    TMP DP  RH WIND       PRES   REMARKS
BWI AIRPORT    MOSUNNY   45  38  76 CALM      30.31S
MD SCIENCE CTR   N/A     50  37  61 MISG      30.34R
MARTIN STATE   MOSUNNY   45  43  93 CALM      30.33S
ANNAPOLIS      SUNNY     47  44  90 CALM      30.31R
FORT MEADE*    MOSUNNY   39  36  87 CALM      30.33F

$$

MDZ012-015-019>023-281400-
MARYLAND EASTERN SHORE

CITY           SKY/WX    TMP DP  RH WIND       PRES   REMARKS
OCEAN CITY     MOSUNNY   51  48  89 S6        30.33S
SALISBURY      MOSUNNY   49  47  93 CALM      30.31F
BAY BRIDGE AP* SUNNY     48  43  81 CALM      30.32R
CAMBRIDGE*     SUNNY     48  45  87 CALM      30.31S
EASTON*        PTSUNNY   48  41  76 CALM      30.35

$$

MDZ017>025-281400-
SOUTHERN MARYLAND

CITY           SKY/WX    TMP DP  RH WIND       PRES   REMARKS
PATUXENT RIVER MOSUNNY   47  45  93 CALM      30.31R
ST INIGOES     SUNNY     49  45  86 CALM      30.30S
LEONARDTOWN*   SUNNY     48  45  87 CALM      30.32S

$$

MDZ003>005-281400-
NORTH CENTRAL MARYLAND

CITY           SKY/WX    TMP DP  RH WIND       PRES   REMARKS
FREDERICK*     SUNNY     36  36 100 CALM      30.33S
HAGERSTOWN APT SUNNY     40  33  76 NW5       30.28R
WESTMINSTER*   SUNNY     45  34  65 SE5       30.29S

$$

MDZ501>502-281400-
WESTERN MARYLAND

CITY           SKY/WX    TMP DP  RH WIND       PRES   REMARKS
OAKLAND*       SUNNY     41  32  70 S9        30.23R
CUMBERLAND*    SUNNY     37  37 100 CALM      30.31S

$$

VAZ025>031-281400-
SHENANDOAH VALLEY

CITY           SKY/WX    TMP DP  RH WIND       PRES   REMARKS
WINCHESTER*    SUNNY     41  32  70 CALM      30.28S
FRONT ROYAL*   SUNNY     37  32  81 CALM      30.27S
LURAY*         SUNNY     37  34  87 CALM      30.28S
NEW MARKET*    SUNNY     33  28  84 CALM      30.29R
STAUNTON*      SUNNY     33  30  88 CALM      30.32R
WAYNESBORO*    SUNNY     38  28  66 CALM      30.29R

$$

WVZ021-048>050-054>055-281400-
EASTERN WEST VIRGINIA PANHANDLE

CITY           SKY/WX    TMP DP  RH WIND       PRES   REMARKS
MARTINSBURG    SUNNY     42  31  64 CALM      30.28S
PETERSBURG*    SUNNY     36  32  87 CALM      30.31R

$$

VAZ036>039-050-281400-
CENTRAL FOOTHILLS

CITY           SKY/WX    TMP DP  RH WIND       PRES   REMARKS
CHARLOTTESVILL SUNNY     45  33  63 CALM      30.28S
CULPEPER*      SUNNY     41  37  84 NE3       30.31R
ORANGE*        SUNNY     43  34  70 CALM      30.31S
GORDONSVILLE*  SUNNY     42  34  73 CALM      30.29S
WARRENTON*     SUNNY     44  33  66 CALM      30.30R

$$

VAZ055>057-281400-
NORTH AND CENTRAL PIEDMONT

CITY           SKY/WX    TMP DP  RH WIND       PRES   REMARKS
FREDERICKSBRG* SUNNY     46  40  81 CALM      30.30S
STAFFORD*      SUNNY     42  39  88 CALM      30.35R

$$

NCZ024-NYZ072-PAZ021-071-VAZ022-071-281400-
OTHER REGIONAL OBSERVATIONS

CITY           SKY/WX    TMP DP  RH WIND       PRES   REMARKS
NEW YORK CITY  CLOUDY    47  37  68 NE6       30.38R
PHILADELPHIA   CLOUDY    46  38  73 VRB3      30.34R
PITTSBURGH     PTSUNNY   40  38  93 CALM      30.20R
ROANOKE        SUNNY     41  32  70 CALM      30.32S
RICHMOND       MOSUNNY   52  46  80 CALM      30.31R
RALEIGH        MOSUNNY   53  48  83 CALM      30.32R

$$

ANZ530>537-281400-
MARINE OBSERVATIONS

STATION/POSITION TIME  TEMP    WIND        PRES
                       AIR SEA DIR/SP/G
                 (UTC) (F)     (DEG/KT/KT) (MB)
THOMAS PT LIGHT  1300   47 44   40/  2/  2   N/A
BALT KEY BRIDGE  1248   46     110/  4/  4 1026.6R
COVE POINT       1248   47     180/  4/  4 1026.9R
LEWISETTA        1248   54 49   CALM  /  2 1025.7F
SOLOMONS ISLAND  1248   52 45   CALM  /  1   N/A
PINEY POINT      1236           40/  2/  2   N/A

$$




USA.gov is the U.S. government's official web portal to all federal, state and local government web resources and services.